This is the latest recevied weather packets stored in our database for station/object KW4UJ. If no packets are shown the sender has not sent any weather packets the latest 10 day(s).
| Time | Temp. | Humidity | Pressure | Rain* | Wind** | Luminosity | Snow |
|---|---|---|---|---|---|---|---|
| 1777846213 | 17.22° C | 29% | 1013.9 hPa | 0 mm | - | 192 W/m² | - |
| 1777845909 | 17.22° C | 29% | 1014.1 hPa | 0 mm | - | 204 W/m² | - |
| 1777845606 | 17.22° C | 28% | 1013.9 hPa | 0 mm | - | 221 W/m² | - |
| 1777845303 | 17.22° C | 30% | 1013.9 hPa | 0 mm | - | 234 W/m² | - |
| 1777845000 | 17.78° C | 28% | 1014 hPa | 0 mm | - | 248 W/m² | - |
| 1777844698 | 17.22° C | 29% | 1014.1 hPa | 0 mm | - | 262 W/m² | - |
| 1777844395 | 17.22° C | 29% | 1014.2 hPa | 0 mm | - | 280 W/m² | - |
| 1777844093 | 17.22° C | 30% | 1014.1 hPa | 0 mm | - | 293 W/m² | - |
| 1777843789 | 17.22° C | 29% | 1014.2 hPa | 0 mm | - | 307 W/m² | - |
| 1777843487 | 17.22° C | 31% | 1014.1 hPa | 0 mm | - | 322 W/m² | - |
| 1777843184 | 17.22° C | 29% | 1014.2 hPa | 0 mm | - | 335 W/m² | - |
| 1777842881 | 17.22° C | 30% | 1014.1 hPa | 0 mm | - | 349 W/m² | - |
| 1777842576 | 17.22° C | 30% | 1014.2 hPa | 0 mm | - | 364 W/m² | - |
| 1777842274 | 16.67° C | 29% | 1014 hPa | 0 mm | - | 377 W/m² | - |
| 1777841974 | 17.22° C | 29% | 1014.1 hPa | 0 mm | - | 391 W/m² | - |
| 1777841671 | 17.22° C | 30% | 1014.2 hPa | 0 mm | - | 402 W/m² | - |
| 1777841367 | 17.78° C | 30% | 1014.1 hPa | 0 mm | - | 413 W/m² | - |
| 1777841065 | 17.22° C | 29% | 1014.3 hPa | 0 mm | - | 429 W/m² | - |
| 1777840762 | 17.22° C | 29% | 1014.1 hPa | 0 mm | - | 445 W/m² | - |
| 1777840459 | 17.22° C | 30% | 1014.2 hPa | 0 mm | - | 455 W/m² | - |
| 1777840156 | 17.22° C | 30% | 1014.3 hPa | 0 mm | - | 465 W/m² | - |
| 1777839854 | 17.22° C | 30% | 1014.3 hPa | 0 mm | - | 484 W/m² | - |
| 1777839552 | 17.22° C | 30% | 1014.4 hPa | 0 mm | - | 499 W/m² | - |
| 1777839249 | 16.67° C | 31% | 1014.6 hPa | 0 mm | - | 526 W/m² | - |
| 1777838947 | 16.67° C | 31% | 1014.5 hPa | 0 mm | - | 214 W/m² | - |
* Rain latest hour (hover to see other rain measurements)
** Current wind speed in m/s (hover to see current wind gust speed)